Meteo Giornale » Osservazioni meteo Repubblica Dominicana » Santiago
ore: 14:00 - Osservazioni Meteo Santiago
Lat. 19° 27' N Lon. 70° 42' W Alt. 183 metri s.l.m.
24 °C
Nuvoloso
Temp. 24 Ore
24 °C
35 °C
Nord
5.5 Km/h
Dew point 24 °C
Umidità 100 %
Visibilità 10 Km
Il sole sorge alle ore 06:27
Il sole tramonta alle ore 18:57
| Data e Ora | Cielo e Fenomeni | T °C | DP °C | Um. % | Pres. hPa | Vis. km | Vento km/h | |
|---|---|---|---|---|---|---|---|---|
| Oggi h: 14:00 | Nuvoloso | 24 | 24 | 100 | 1014 | 10 | N 5.5 | |
| Oggi h: 13:00 | Nuvoloso | 33 | 24 | 59 | 1014 | 10 | E/NE 16.7 | |
| Oggi h: 12:00 | Nuvoloso | 32 | 24 | 62 | 1015 | 10 | E 11.1 | |
| Oggi h: 11:00 | Nuvoloso | 32 | 24 | 62 | 1015 | 10 | E 14.8 | |
| Oggi h: 10:00 | Nuvoloso | 30 | 24 | 70 | 1016 | 10 | E/SE 14.8 | |
| Oggi h: 09:00 | Nuvoloso | 27 | 24 | 83 | 1016 | 10 | E/SE 9.3 | |
| Oggi h: 08:00 | Nuvoloso | 25 | 24 | 94 | 1015 | 10 | N 0 | |
| Oggi h: 07:00 | Nuvoloso | 24 | 24 | 100 | 1015 | 10 | N 0 | |
| Oggi h: 06:00 | Nuvoloso | 24 | 24 | 100 | 1015 | 10 | N 0 | |
| Oggi h: 05:00 | Molto Nuvoloso | 24 | 24 | 100 | 1015 | 10 | SE 7.4 | |
| Oggi h: 04:00 | Temporale | 24 | 24 | 100 | 1014 | 10 | SE 7.4 | |
| Oggi h: 03:00 | Nuvoloso | 24 | 24 | 100 | 1015 | 10 | N 0 | |
| Oggi h: 02:00 | Nuvoloso | 25 | 25 | 100 | 1015 | 10 | N 0 | |
| Oggi h: 01:00 | Nuvoloso | 25 | 25 | 100 | 1016 | 10 | N 0 | |
| Oggi h: 00:00 | Nuvoloso | 25 | 24 | 94 | 1016 | 10 | N 0 | |
| Ieri h: 23:00 | Nuvoloso | 26 | 25 | 94 | 1016 | 10 | SE 7.4 | |
| Ieri h: 22:00 | Nuvoloso | 26 | 25 | 94 | 1015 | 10 | N 0 | |
| Ieri h: 21:00 | Temporale | 25 | 24 | 94 | 1015 | 10 | N 0 | |
| Ieri h: 20:00 | Temporale | 25 | 24 | 94 | 1014 | 7 | N/NO 11.1 | |
| Ieri h: 19:00 | Molto Nuvoloso | 26 | 23 | 83 | 1014 | 10 | O/NO 11.1 | |
| Ieri h: 18:18 | Temporale | 26 | 23 | 83 | 1013 | 7 | O/NO 18.5 | |
| Ieri h: 18:00 | Temporale | 27 | 24 | 83 | 1013 | 8 | O/NO 25.9 | |
| Ieri h: 17:00 | Pioggia nelle vicinanze | 31 | 24 | 66 | 1012 | 8 | SE 13 | |
| Ieri h: 16:00 | Pioggia nelle vicinanze | 32 | 24 | 62 | 1011 | 8 | SE 18.5 | |
| Ieri h: 15:00 | Molto Nuvoloso | 35 | 24 | 53 | 1012 | 10 | E/SE 22.2 | |



